Weather History for Frankfort, KY

Change the Weather History Date:

Saturday, November 9, 2013

  Actual Average Record
Temperature  
Mean Temperature 46 °F 49 °F  
Max Temperature 61 °F 60 °F 76 °F (2005)
Min Temperature 30 °F 38 °F 18 °F (1991)
Degree Days  
Heating Degree Days 19 16  
Month to date heating degree days 143 135  
Since 1 July heating degree days 482 476  
Cooling Degree Days 0 0  
Month to date cooling degree days 0 0  
Year to date cooling degree days 1127 1154  
Moisture  
Dew Point 29 °F    
Average Humidity 58    
Maximum Humidity 89    
Minimum Humidity 27    
Precipitation  
Precipitation 0.00 in 0.11 in 0.90 in (2000)
Month to date precipitation 0.38 1.07  
Year to date precipitation 42.93 38.95  
Sea Level Pressure  
Sea Level Pressure 30.18 in    
Wind  
Wind Speed 10 mph (SSW)    
Max Wind Speed 23 mph    
Max Gust Speed 32 mph    
Visibility 10 miles    
Events Snow    
T = Trace of Precipitation, MM = Missing Value Source: NWS Daily Summary

Daily Weather History Graph

Daily Weather History Graph

Search for Another Location

Airport:

Trip Planner

Search our weather history database for the weather conditions in past years. The results will help you decide how hot, cold, wet, or windy it might be!

Date:

Astronomy

Nov. 09, 2013 Rise Set
Actual Time 7:14 AM EST 5:31 PM EST
Civil Twilight 6:46 AM EST 5:59 PM EST
Nautical Twilight 6:15 AM EST 6:31 PM EST
Astronomical Twilight 5:44 AM EST 7:02 PM EST
Moon 12:51 PM EST (11/9) No Moon Set
Length of Visible Light 11h 13m
Length of Day
10h 17m
Waxing Crescent, 44% of the Moon is Illuminated
Nov 9
Waxing Crescent
Nov 10
First Quarter
Nov 17
Full
Nov 25
Last Quarter
Dec 2
New

Hourly Weather History & Observations

Time (EST) Temp. Windchill Dew Point Humidity Pressure Visibility Wind Dir Wind Speed Gust Speed Precip Events Conditions
12:53 AM 35.1 °F - 30.0 °F 82% 30.26 in 10.0 mi Calm Calm - N/A   Clear
1:53 AM 33.1 °F - 28.0 °F 82% 30.25 in 10.0 mi Calm Calm - N/A   Clear
2:53 AM 32.0 °F 28.7 °F 28.0 °F 85% 30.24 in 10.0 mi SSE 3.5 mph - N/A   Clear
3:53 AM 34.0 °F 31.0 °F 27.0 °F 75% 30.22 in 10.0 mi SSE 3.5 mph - 0.00 in   Clear
4:53 AM 32.0 °F - 27.0 °F 82% 30.22 in 10.0 mi Calm Calm - N/A   Clear
5:53 AM 30.9 °F 26.2 °F 27.0 °F 85% 30.22 in 10.0 mi SSE 4.6 mph - 0.00 in Snow Light Snow
6:53 AM 33.1 °F 26.9 °F 26.1 °F 75% 30.22 in 9.0 mi South 6.9 mph - 0.00 in Snow Light Snow
7:53 AM 35.1 °F 29.3 °F 27.0 °F 72% 30.23 in 9.0 mi SSW 6.9 mph - 0.00 in Snow Light Snow
8:53 AM 42.1 °F 37.1 °F 28.0 °F 58% 30.22 in 10.0 mi SSW 8.1 mph - 0.00 in   Clear
9:53 AM 50.0 °F - 28.9 °F 44% 30.21 in 10.0 mi SSW 11.5 mph - N/A   Clear
10:53 AM 54.0 °F - 30.0 °F 40% 30.19 in 10.0 mi SW 17.3 mph 23.0 mph N/A   Clear
11:53 AM 57.0 °F - 28.0 °F 33% 30.17 in 10.0 mi SSW 19.6 mph 27.6 mph N/A   Clear
12:53 PM 60.1 °F - 26.1 °F 27% 30.14 in 10.0 mi SW 15.0 mph 26.5 mph N/A   Clear
1:53 PM 61.0 °F - 26.1 °F 26% 30.12 in 10.0 mi SW 17.3 mph 27.6 mph N/A   Clear
2:53 PM 60.1 °F - 30.0 °F 32% 30.12 in 10.0 mi SSW 17.3 mph 23.0 mph N/A   Clear
3:53 PM 60.1 °F - 28.9 °F 31% 30.11 in 10.0 mi SW 20.7 mph 25.3 mph N/A   Clear
4:53 PM 57.9 °F - 30.0 °F 35% 30.12 in 10.0 mi WSW 11.5 mph 20.7 mph N/A   Clear
5:53 PM 55.0 °F - 30.0 °F 38% 30.12 in 10.0 mi SSW 8.1 mph - N/A   Clear
6:53 PM 51.1 °F - 30.9 °F 46% 30.13 in 10.0 mi SSW 9.2 mph - N/A   Clear
7:53 PM 52.0 °F - 30.9 °F 45% 30.14 in 10.0 mi SW 10.4 mph - N/A   Clear
8:53 PM 50.0 °F - 30.9 °F 48% 30.16 in 10.0 mi SW 10.4 mph - N/A   Clear
9:53 PM 48.9 °F - 30.9 °F 50% 30.16 in 10.0 mi SW 10.4 mph - N/A   Clear
10:53 PM 48.0 °F - 32.0 °F 54% 30.17 in 10.0 mi SW 10.4 mph - N/A   Clear
11:53 PM 46.0 °F 41.0 °F 32.0 °F 58% 30.17 in 10.0 mi SW 10.4 mph - N/A   Clear